Location: Mentone
(34.5413°N, 85.5351°W)
Time: 22:19:20
(UTC-05:00)

Vanguard 1 - Visible Passes

Search period start: 24 May 2015 00:00
Search period end: 03 June 2015 00:00
Orbit: 650 x 3835 km, 34.3° (Epoch: 22 May)

Date Brightness Start Highest point End Pass type
(mag) Time Alt. Az. Time Alt. Az. Time Alt. Az.
24 May 12.5 01:16:28 10° W 01:32:36 89° S 01:56:39 10° E visible
24 May 12.9 03:39:39 10° W 04:00:30 79° SSW 04:23:16 10° ESE visible
24 May 12.0 20:59:01 10° SSW 21:06:56 32° SE 21:20:22 10° E visible
24 May 11.9 23:16:45 10° WSW 23:28:41 75° SSE 23:49:58 10° ENE visible
25 May 12.5 01:37:57 10° W 01:54:40 89° S 02:18:48 10° E visible
25 May 12.9 04:01:20 10° WNW 04:22:26 72° SSW 04:44:41 10° SE visible
25 May 11.8 21:19:11 10° SSW 21:27:43 42° SE 21:42:55 10° ENE visible
25 May 12.0 23:37:54 10° WSW 23:50:18 82° SSE 00:12:12 10° E visible
26 May 12.6 01:59:28 10° W 02:16:44 87° S 02:40:51 10° ESE visible
26 May 12.9 04:23:04 10° WNW 04:44:13 64° SSW 05:05:50 10° SE visible
26 May 11.6 21:39:42 10° SW 21:48:40 53° SSE 22:05:14 10° ENE visible
26 May 12.1 23:59:09 10° WSW 00:12:03 87° S 00:34:27 10° E visible
27 May 12.6 02:20:59 10° W 02:38:46 84° SSW 03:02:47 10° ESE visible
27 May 13.0 04:44:54 10° WNW 05:05:53 56° SSW 05:26:41 10° SE visible
27 May 11.5 22:00:28 10° SW 22:09:49 64° SSE 22:27:27 10° ENE visible
28 May 12.2 00:20:29 10° W 00:33:55 89° S 00:56:43 10° E visible
28 May 12.7 02:42:31 10° W 03:00:45 78° SSW 03:24:31 10° ESE visible
28 May 11.7 20:04:05 10° S 20:10:21 28° SE 20:20:42 10° E visible
28 May 11.6 22:21:25 10° WSW 22:31:09 74° SSE 22:49:39 10° E visible
29 May 12.3 00:41:51 10° W 00:55:49 89° S 01:18:58 10° E visible
29 May 12.7 03:04:04 10° WNW 03:22:37 71° SSW 03:46:01 10° SE visible
29 May 11.5 20:24:12 10° SSW 20:31:05 39° SE 20:43:10 10° ENE visible
29 May 11.6 22:42:31 10° WSW 22:52:39 82° SSE 23:11:52 10° E visible
30 May 12.3 01:03:15 10° W 01:17:44 87° S 01:41:07 10° ESE visible
30 May 12.8 03:25:41 10° WNW 03:44:25 63° SSW 04:07:13 10° SE visible
30 May 11.3 20:44:42 10° SW 20:51:59 50° SSE 21:05:24 10° ENE visible
30 May 11.7 23:03:43 10° W 23:14:16 87° S 23:34:08 10° E visible
31 May 12.3 01:24:39 10° W 01:39:38 82° SSW 02:03:09 10° ESE visible
31 May 12.9 03:47:24 10° WNW 04:06:08 54° SSW 04:28:06 10° SE visible
31 May 11.2 21:05:28 10° SW 21:13:03 63° SSE 21:27:31 10° ENE visible
31 May 11.8 23:24:58 10° W 23:35:58 89° S 23:56:25 10° E visible
01 Jun 12.4 01:46:04 10° W 02:01:29 76° SSW 02:24:58 10° ESE visible
01 Jun 13.0 04:09:17 10° W 04:27:48 45° SW 04:48:36 10° SSE visible
01 Jun 11.2 21:26:24 10° WSW 21:34:19 74° SSE 21:49:37 10° E visible
01 Jun 11.9 23:46:15 10° W 23:57:43 89° S 00:18:42 10° E visible
02 Jun 12.4 02:07:30 10° WNW 02:23:17 69° SSW 02:46:32 10° SE visible
02 Jun 13.1 04:31:29 10° W 04:49:24 37° SW 05:08:39 10° SSE visible
02 Jun 11.2 21:47:28 10° WSW 21:55:42 82° SSE 22:11:46 10° E visible
